Location: DARK SKY Beskydy - Park tmavé oblohy, www.darkskybeskydy.cz
(49.4926°N, 18.5016°E)
Time: 09:27:14
(UTC+02:00)

Transit 4A - Pass Details

Date: 26 February 2024
Orbit: 871 x 971 km, 66.8° (Epoch: 24 April)

Event Time Altitude Azimuth Distance (km) Brightness Sun altitude
Exits shadow 05:10:00 - 315° (NW) 2,817 10.0 -14.7°
Reaches altitude 10° 05:11:05 10° 323° (NW) 2,590 9.9 -14.5°
Maximum altitude 05:14:20 15° 356° (N) 2,250 9.9 -14.0°
Drops below altitude 10° 05:17:33 10° 30° (NNE) 2,558 10.6 -13.5°
Sets 05:21:18 0° 54° (NE) 3,482 11.9 -12.9°
